User: anonymous   Login
Location: Unspecified
(51.0950°N, 12.9690°E)
Time: 00:04:47
(UTC+00:00)
Language:

EO-79 - Orbit

View from above orbital plane
View from above orbital plane
View from above satellite
View from above satellite

Ground track
Ground track

The orbit data is extracted from the following two-line orbital elements,

1 40025U 14033R   24114.42348184  .00015839  00000-0  13205-2 0  9997
2 40025  98.0370  73.4381 0008969 351.7721   8.3352 14.98664880534674
Epoch (UTC): 23 April 2024 10:09:48
Eccentricity: 0.0008969
inclination: 98.0370°
perigee height: 565 km
apogee height: 577 km
right ascension of ascending node: 73.4381°
argument of perigee: 351.7721°
revolutions per day: 14.98664880
mean anomaly at epoch: 8.3352°
orbit number at epoch: 53467

The dashed part of the orbit path shows where the satellite is in the earth's shadow,  

DLR